EW1689 Weather Reports


Display with metric or nautical units.
time (UTC)temp
F
wind
direction
speed
MPH
gust
MPH
rain 1hr
in
rain 24hr
in
rain mn
in
humidity
%
barometer
mb
20260504021038 85 0 2.0 5.0 0.00 0.00 0.00 17 1006.6
20260504020018 85 0 3.0 7.0 0.00 0.00 0.00 17 1006.4
20260504015017 86 0 1.0 4.0 0.00 0.00 0.00 16 1006.3
20260504014017 87 0 1.0 3.0 0.00 0.00 0.00 16 1006.1
20260504013017 87 0 2.0 4.0 0.00 0.00 0.00 15 1006.1
20260504012057 88 0 2.0 7.0 0.00 0.00 0.00 15 1006.3
20260504011017 89 0 1.0 5.0 0.00 0.00 0.00 15 1006.3
20260504010017 90 0 4.0 9.0 0.00 0.00 0.00 13 1006.3
20260504005018 90 0 2.0 6.0 0.00 0.00 0.00 14 1006.3
20260504004017 90 0 5.0 14.0 0.00 0.00 0.00 14 1006.3
20260504003017 91 0 2.0 9.0 0.00 0.00 0.00 13 1006.3
20260504002017 90 0 5.0 12.0 0.00 0.00 0.00 13 1006.4
20260504001017 90 0 5.0 12.0 0.00 0.00 0.00 14 1006.4
20260504000017 91 0 4.0 10.0 0.00 0.00 0.00 15 1006.6
20260503235017 91 0 5.0 8.0 0.00 0.00 0.00 15 1006.6
20260503234017 91 0 5.0 14.0 0.00 0.00 0.00 14 1006.8
20260503233017 92 0 4.0 8.0 0.00 0.00 0.00 14 1007.0
20260503232017 91 0 4.0 9.0 0.00 0.00 0.00 14 1006.9
20260503231018 91 0 4.0 9.0 0.00 0.00 0.00 15 1007.2
20260503230017 92 0 4.0 12.0 0.00 0.00 0.00 14 1007.4
20260503225017 91 0 3.0 7.0 0.00 0.00 0.00 14 1007.6
20260503224017 91 0 5.0 11.0 0.00 0.00 0.00 15 1007.9
20260503223017 91 0 3.0 7.0 0.00 0.00 0.00 16 1008.0
20260503222017 92 0 5.0 12.0 0.00 0.00 0.00 16 1008.3
20260503221017 92 0 2.0 6.0 0.00 0.00 0.00 16 1008.4
20260503220017 91 0 4.0 10.0 0.00 0.00 0.00 16 1008.5
20260503215017 91 0 5.0 11.0 0.00 0.00 0.00 16 1008.7
20260503214017 91 0 5.0 10.0 0.00 0.00 0.00 16 1008.8
20260503213037 92 0 5.0 15.0 0.00 0.00 0.00 16 1008.8
20260503212037 91 0 4.0 10.0 0.00 0.00 0.00 17 1009.1
20260503211017 91 0 4.0 10.0 0.00 0.00 0.00 17 1009.2
20260503210017 91 0 4.0 13.0 0.00 0.00 0.00 19 1009.4
20260503205016 91 0 3.0 8.0 0.00 0.00 0.00 19 1009.5
20260503204017 90 0 5.0 10.0 0.00 0.00 0.00 19 1009.6
20260503203016 90 0 5.0 12.0 0.00 0.00 0.00 19 1009.7
20260503202016 90 0 3.0 8.0 0.00 0.00 0.00 20 1009.9
20260503201016 90 0 4.0 9.0 0.00 0.00 0.00 20 1010.1
20260503200017 90 0 3.0 8.0 0.00 0.00 0.00 21 1010.2
20260503195016 90 0 3.0 9.0 0.00 0.00 0.00 20 1010.3
20260503194017 90 0 4.0 8.0 0.00 0.00 0.00 20 1010.6
20260503193016 90 0 4.0 9.0 0.00 0.00 0.00 19 1010.7
20260503192017 89 0 4.0 8.0 0.00 0.00 0.00 20 1010.7
20260503191017 88 0 2.0 6.0 0.00 0.00 0.00 20 1010.8
20260503190016 89 0 5.0 9.0 0.00 0.00 0.00 19 1011.0
20260503185036 88 0 3.0 7.0 0.00 0.00 0.00 21 1011.1
20260503184017 88 0 2.0 4.0 0.00 0.00 0.00 21 1011.2
20260503183016 87 0 4.0 9.0 0.00 0.00 0.00 21 1011.3
20260503182016 87 0 3.0 8.0 0.00 0.00 0.00 22 1011.4
20260503181017 85 0 1.0 4.0 0.00 0.00 0.00 26 1011.5
20260503180016 84 0 2.0 6.0 0.00 0.00 0.00 26 1011.6
20260503175017 84 0 3.0 9.0 0.00 0.00 0.00 26 1011.6
20260503174036 83 0 2.0 6.0 0.00 0.00 0.00 28 1011.9
20260503173017 83 0 1.0 4.0 0.00 0.00 0.00 28 1012.0
20260503172016 83 0 2.0 5.0 0.00 0.00 0.00 28 1012.0
20260503171036 83 0 3.0 6.0 0.00 0.00 0.00 28 1012.0
20260503150516 77 0 3.0 7.0 0.00 0.00 0.00 32 1011.9
20260503130515 74 0 2.0 5.0 0.00 0.00 0.00 33 1011.7
20260503110517 76 0 1.0 4.0 0.00 0.00 0.00 29 1011.5
20260503081517 77 0.0 1.0 0.00 0.00 0.00 23 1011.8
20260503080517 77 0.0 1.0 0.00 0.00 0.00 22 1011.9
20260503072517 76 0.0 0.0 0.00 0.00 0.00 23 1011.8
20260503071516 76 0.0 0.0 0.00 0.00 0.00 23 1011.9
20260503070516 76 0.0 0.0 0.00 0.00 0.00 22 1011.9
20260503054516 76 0.0 0.0 0.00 0.00 0.00 21 1011.2
20260503053516 76 0.0 0.0 0.00 0.00 0.00 22 1011.2
20260503052517 77 0.0 1.0 0.00 0.00 0.00 21 1011.3
20260503051516 77 0 1.0 2.0 0.00 0.00 0.00 20 1011.4
20260503050516 78 0.0 0.0 0.00 0.00 0.00 20 1011.2
20260503045516 77 0.0 0.0 0.00 0.00 0.00 20 1010.9
20260503044516 78 0.0 1.0 0.00 0.00 0.00 21 1010.9
20260503043516 78 0.0 0.0 0.00 0.00 0.00 20 1010.7
20260503042536 78 0.0 0.0 0.00 0.00 0.00 20 1010.5
20260503041516 79 0.0 0.0 0.00 0.00 0.00 20 1010.4
20260503040516 79 0.0 0.0 0.00 0.00 0.00 20 1010.4
20260503035516 79 0.0 0.0 0.00 0.00 0.00 20 1010.2
20260503034516 79 0.0 0.0 0.00 0.00 0.00 20 1010.0
20260503033556 79 0.0 0.0 0.00 0.00 0.00 20 1010.0
20260503032516 79 0.0 0.0 0.00 0.00 0.00 19 1010.1
20260503031516 80 0.0 0.0 0.00 0.00 0.00 19 1010.0
20260503030516 80 0.0 0.0 0.00 0.00 0.00 19 1009.9
20260503025516 81 0.0 0.0 0.00 0.00 0.00 18 1009.8
20260503024516 82 0.0 0.0 0.00 0.00 0.00 18 1009.7
20260503023516 82 0.0 0.0 0.00 0.00 0.00 18 1009.7
20260503022516 83 0.0 0.0 0.00 0.00 0.00 17 1009.6